| time (UTC) | temp F | wind direction | speed MPH | gust MPH | rain 1hr in | rain 24hr in | rain mn in | humidity % | barometer mb |
| 20260901045708 | 0 | 167 | 3.0 | 3.0 | 0.00 | 0.00 | 0.00 | 1064.8 | |
| 20260901045203 | 0 | 178 | 3.0 | 5.0 | 0.00 | 0.00 | 0.00 | 1064.5 | |
| 20260901044658 | 0 | 152 | 2.0 | 2.0 | 0.00 | 0.00 | 0.00 | 1064.7 | |
| 20260901044154 | 0 | 144 | 1.0 | 5.0 | 0.00 | 0.00 | 0.00 | 1064.7 | |
| 20260901043650 | 0 | 168 | 2.0 | 2.0 | 0.00 | 0.00 | 0.00 | 1064.8 | |
| 20260901043145 | 0 | 145 | 3.0 | 3.0 | 0.00 | 0.00 | 0.00 | 1064.8 | |
| 20260901042644 | 0 | 149 | 1.0 | 2.0 | 0.00 | 0.00 | 0.00 | 1064.8 | |
| 20260901042140 | 0 | 179 | 1.0 | 2.0 | 0.00 | 0.00 | 0.00 | 1064.6 | |
| 20260901041636 | 0 | 152 | 1.0 | 2.0 | 0.00 | 0.00 | 0.00 | 1064.4 | |
| 20260901041130 | 0 | 164 | 1.0 | 3.0 | 0.00 | 0.00 | 0.00 | 1064.6 | |
| 20260901040630 | 0 | 151 | 1.0 | 2.0 | 0.00 | 0.00 | 0.00 | 1064.5 | |
| 20260901040129 | 0 | 167 | 2.0 | 5.0 | 0.00 | 0.00 | 0.00 | 1064.8 | |
| 20260901035628 | 0 | 201 | 3.0 | 7.0 | 0.00 | 0.00 | 0.00 | 1064.8 | |
| 20260901035126 | 0 | 179 | 3.0 | 3.0 | 0.00 | 0.00 | 0.00 | 1064.7 | |
| 20260901034621 | 0 | 197 | 2.0 | 6.0 | 0.00 | 0.00 | 0.00 | 1064.5 | |
| 20260901034115 | 0 | 176 | 4.0 | 5.0 | 0.00 | 0.00 | 0.00 | 1064.6 | |
| 20260901033614 | 0 | 193 | 4.0 | 5.0 | 0.00 | 0.00 | 0.00 | 1064.4 | |
| 20260901033109 | 0 | 172 | 3.0 | 3.0 | 0.00 | 0.00 | 0.00 | 1064.6 | |
| 20260901032608 | 0 | 173 | 2.0 | 6.0 | 0.00 | 0.00 | 0.00 | 1064.5 | |
| 20260901032103 | 0 | 166 | 4.0 | 6.0 | 0.00 | 0.00 | 0.00 | 1064.4 | |
| 20260901031558 | 0 | 147 | 3.0 | 6.0 | 0.00 | 0.00 | 0.00 | 1064.3 | |
| 20260901031054 | 0 | 157 | 4.0 | 7.0 | 0.00 | 0.00 | 0.00 | 1064.5 | |
| 20260901030553 | 0 | 178 | 2.0 | 6.0 | 0.00 | 0.00 | 0.00 | 1064.4 | |
| 20260901030048 | 0 | 172 | 2.0 | 3.0 | 0.00 | 0.00 | 0.00 | 1064.5 | |
| 20260901025542 | 0 | 162 | 2.0 | 5.0 | 0.00 | 0.00 | 0.00 | 1064.4 | |
| 20260901025037 | 0 | 143 | 2.0 | 3.0 | 0.00 | 0.00 | 0.00 | 1064.4 | |
| 20260901024532 | 0 | 139 | 5.0 | 7.0 | 0.00 | 0.00 | 0.00 | 1064.5 | |
| 20260901024030 | 0 | 151 | 1.0 | 2.0 | 0.00 | 0.00 | 0.00 | 1064.3 | |
| 20260901023524 | 0 | 158 | 1.0 | 3.0 | 0.00 | 0.00 | 0.00 | 1064.6 | |
| 20260901023020 | 0 | 163 | 3.0 | 3.0 | 0.00 | 0.00 | 0.00 | 1064.2 | |
| 20260901022515 | 0 | 152 | 2.0 | 5.0 | 0.00 | 0.00 | 0.00 | 1064.3 | |
| 20260901022010 | 0 | 159 | 1.0 | 2.0 | 0.00 | 0.00 | 0.00 | 1064.3 | |
| 20260901021505 | 0 | 148 | 2.0 | 3.0 | 0.00 | 0.00 | 0.00 | 1063.9 | |
| 20260901021000 | 0 | 132 | 2.0 | 2.0 | 0.00 | 0.00 | 0.00 | 1064.3 | |
| 20260901020450 | 0 | 165 | 2.0 | 3.0 | 0.00 | 0.00 | 0.00 | 1064.2 | |
| 20260901015949 | 0 | 142 | 3.0 | 6.0 | 0.00 | 0.00 | 0.00 | 1064.0 | |
| 20260901015446 | 0 | 152 | 2.0 | 3.0 | 0.00 | 0.00 | 0.00 | 1063.9 | |
| 20260901014945 | 0 | 145 | 3.0 | 5.0 | 0.00 | 0.00 | 0.00 | 1063.8 | |
| 20260901014441 | 0 | 161 | 1.0 | 2.0 | 0.00 | 0.00 | 0.00 | 1063.7 | |
| 20260901013937 | 0 | 164 | 3.0 | 5.0 | 0.00 | 0.00 | 0.00 | 1063.8 | |
| 20260901013432 | 0 | 175 | 2.0 | 3.0 | 0.00 | 0.00 | 0.00 | 1063.7 | |
| 20260901012928 | 0 | 163 | 1.0 | 2.0 | 0.00 | 0.00 | 0.00 | 1063.8 | |
| 20260901012422 | 0 | 169 | 1.0 | 3.0 | 0.00 | 0.00 | 0.00 | 1063.5 | |
| 20260901011918 | 0 | 134 | 2.0 | 3.0 | 0.00 | 0.00 | 0.00 | 1063.6 | |
| 20260901011414 | 0 | 156 | 1.0 | 2.0 | 0.00 | 0.00 | 0.00 | 1063.5 | |
| 20260901010912 | 0 | 158 | 1.0 | 2.0 | 0.00 | 0.00 | 0.00 | 1063.5 | |
| 20260901010407 | 0 | 148 | 1.0 | 2.0 | 0.00 | 0.00 | 0.00 | 1063.7 | |
| 20260901005906 | 0 | 158 | 1.0 | 2.0 | 0.00 | 0.00 | 0.00 | 1063.4 | |
| 20260901005401 | 0 | 155 | 1.0 | 2.0 | 0.00 | 0.00 | 0.00 | 1063.6 | |
| 20260901004856 | 0 | 143 | 0.0 | 1.0 | 0.00 | 0.00 | 0.00 | 1063.4 | |
| 20260901004355 | 0 | 169 | 2.0 | 2.0 | 0.00 | 0.00 | 0.00 | 1063.5 | |
| 20260901003850 | 0 | 148 | 1.0 | 1.0 | 0.00 | 0.00 | 0.00 | 1063.4 | |
| 20260901003345 | 0 | 148 | 1.0 | 2.0 | 0.00 | 0.00 | 0.00 | 1063.5 | |
| 20260901002844 | 0 | 159 | 1.0 | 2.0 | 0.00 | 0.00 | 0.00 | 1063.1 | |
| 20260901002343 | 0 | 171 | 2.0 | 3.0 | 0.00 | 0.00 | 0.00 | 1063.3 | |
| 20260901001838 | 0 | 150 | 1.0 | 2.0 | 0.00 | 0.00 | 0.00 | 1063.4 | |
| 20260901001333 | 0 | 149 | 2.0 | 5.0 | 0.00 | 0.00 | 0.00 | 1063.4 | |
| 20260901000829 | 0 | 176 | 3.0 | 6.0 | 0.00 | 0.00 | 0.00 | 1063.3 | |
| 20260901000324 | 0 | 169 | 1.0 | 3.0 | 0.00 | 0.00 | 0.00 | 1063.1 | |
| 20260831235822 | 0 | 143 | 0.0 | 2.0 | 0.00 | 0.00 | 0.00 | 1063.1 | |
| 20260831235319 | 0 | 133 | 2.0 | 3.0 | 0.00 | 0.00 | 0.00 | 1063.4 | |
| 20260831234813 | 0 | 127 | 3.0 | 5.0 | 0.00 | 0.00 | 0.00 | 1063.5 | |
| 20260831234313 | 0 | 144 | 0.0 | 1.0 | 0.00 | 0.00 | 0.00 | 1063.3 | |
| 20260831233809 | 0 | 210 | 2.0 | 2.0 | 0.00 | 0.00 | 0.00 | 1063.3 | |
| 20260831233304 | 0 | 165 | 1.0 | 6.0 | 0.00 | 0.00 | 0.00 | 1063.1 | |
| 20260831232759 | 0 | 149 | 1.0 | 5.0 | 0.00 | 0.00 | 0.00 | 1063.3 | |
| 20260831232255 | 0 | 151 | 1.0 | 1.0 | 0.00 | 0.00 | 0.00 | 1063.5 | |
| 20260831231751 | 0 | 176 | 2.0 | 6.0 | 0.00 | 0.00 | 0.00 | 1063.0 | |
| 20260831231247 | 0 | 154 | 0.0 | 3.0 | 0.00 | 0.00 | 0.00 | 1063.1 | |
| 20260831230742 | 0 | 174 | 3.0 | 7.0 | 0.00 | 0.00 | 0.00 | 1063.3 | |
| 20260831230237 | 0 | 156 | 2.0 | 5.0 | 0.00 | 0.00 | 0.00 | 1063.1 | |
| 20260831225736 | 0 | 183 | 1.0 | 2.0 | 0.00 | 0.00 | 0.00 | 1063.4 | |
| 20260831225232 | 0 | 119 | 0.0 | 2.0 | 0.00 | 0.00 | 0.00 | 1063.1 | |
| 20260831224726 | 0 | 163 | 1.0 | 2.0 | 0.00 | 0.00 | 0.00 | 1063.1 | |
| 20260831224222 | 0 | 172 | 3.0 | 6.0 | 0.00 | 0.00 | 0.00 | 1063.3 | |
| 20260831223717 | 0 | 180 | 1.0 | 3.0 | 0.00 | 0.00 | 0.00 | 1063.1 | |
| 20260831223213 | 0 | 166 | 2.0 | 3.0 | 0.00 | 0.00 | 0.00 | 1063.5 | |
| 20260831222709 | 0 | 136 | 1.0 | 2.0 | 0.00 | 0.00 | 0.00 | 1063.0 | |
| 20260831222205 | 0 | 182 | 2.0 | 2.0 | 0.00 | 0.00 | 0.00 | 1063.4 | |
| 20260831221700 | 0 | 165 | 0.0 | 6.0 | 0.00 | 0.00 | 0.00 | 1063.3 | |
| 20260831221155 | 0 | 191 | 2.0 | 3.0 | 0.00 | 0.00 | 0.00 | 1063.6 | |
| 20260831220650 | 0 | 191 | 2.0 | 2.0 | 0.00 | 0.00 | 0.00 | 1063.4 | |
| 20260831220145 | 0 | 153 | 6.0 | 11.0 | 0.00 | 0.00 | 0.00 | 1063.1 | |
| 20260831215640 | 0 | 197 | 3.0 | 13.0 | 0.00 | 0.00 | 0.00 | 1063.4 | |
| 20260831215136 | 0 | 153 | 2.0 | 2.0 | 0.00 | 0.00 | 0.00 | 1063.4 | |
| 20260831214633 | 0 | 176 | 2.0 | 14.0 | 0.00 | 0.00 | 0.00 | 1063.5 | |
| 20260831214130 | 0 | 169 | 4.0 | 5.0 | 0.00 | 0.00 | 0.00 | 1063.5 | |
| 20260831213626 | 0 | 198 | 5.0 | 8.0 | 0.00 | 0.00 | 0.00 | 1063.6 | |
| 20260831213120 | 0 | 141 | 2.0 | 3.0 | 0.00 | 0.00 | 0.00 | 1063.4 | |
| 20260831212616 | 0 | 186 | 3.0 | 6.0 | 0.00 | 0.00 | 0.00 | 1063.4 | |
| 20260831212112 | 0 | 166 | 6.0 | 8.0 | 0.00 | 0.00 | 0.00 | 1063.4 | |
| 20260831211607 | 0 | 151 | 10.0 | 11.0 | 0.00 | 0.00 | 0.00 | 1063.1 | |
| 20260831211106 | 0 | 184 | 3.0 | 5.0 | 0.00 | 0.00 | 0.00 | 1063.4 | |
| 20260831210601 | 0 | 173 | 6.0 | 8.0 | 0.00 | 0.00 | 0.00 | 1063.6 | |
| 20260831210057 | 0 | 196 | 4.0 | 7.0 | 0.00 | 0.00 | 0.00 | 1063.6 | |
| 20260831205557 | 0 | 188 | 5.0 | 6.0 | 0.00 | 0.00 | 0.00 | 1063.7 | |
| 20260831205053 | 0 | 153 | 5.0 | 7.0 | 0.00 | 0.00 | 0.00 | 1063.7 | |
| 20260831204547 | 0 | 180 | 7.0 | 9.0 | 0.00 | 0.00 | 0.00 | 1063.8 | |
| 20260831204046 | 0 | 150 | 4.0 | 5.0 | 0.00 | 0.00 | 0.00 | 1063.8 | |
| 20260831203540 | 0 | 147 | 3.0 | 7.0 | 0.00 | 0.00 | 0.00 | 1064.0 | |
| 20260831203040 | 0 | 237 | 1.0 | 5.0 | 0.00 | 0.00 | 0.00 | 1063.7 | |
| 20260831202539 | 0 | 198 | 1.0 | 2.0 | 0.00 | 0.00 | 0.00 | 1064.0 | |
| 20260831202038 | 0 | 192 | 3.0 | 9.0 | 0.00 | 0.00 | 0.00 | 1063.9 | |
| 20260831201537 | 0 | 114 | 2.0 | 9.0 | 0.00 | 0.00 | 0.00 | 1063.9 | |
| 20260831201033 | 0 | 203 | 1.0 | 5.0 | 0.00 | 0.00 | 0.00 | 1064.1 | |
| 20260831200523 | 0 | 175 | 1.0 | 2.0 | 0.00 | 0.00 | 0.00 | 1064.1 | |
| 20260831200018 | 0 | 274 | 3.0 | 6.0 | 0.00 | 0.00 | 0.00 | 1064.1 | |
| 20260831195514 | 0 | 176 | 6.0 | 8.0 | 0.00 | 0.00 | 0.00 | 1064.1 | |
| 20260831195013 | 0 | 144 | 0.0 | 6.0 | 0.00 | 0.00 | 0.00 | 1064.0 | |
| 20260831194508 | 0 | 214 | 5.0 | 6.0 | 0.00 | 0.00 | 0.00 | 1064.0 | |
| 20260831194003 | 0 | 290 | 3.0 | 5.0 | 0.00 | 0.00 | 0.00 | 1063.9 | |
| 20260831193458 | 0 | 200 | 2.0 | 5.0 | 0.00 | 0.00 | 0.00 | 1064.2 | |
| 20260831192953 | 0 | 167 | 6.0 | 7.0 | 0.00 | 0.00 | 0.00 | 1064.3 | |
| 20260831192448 | 0 | 159 | 1.0 | 3.0 | 0.00 | 0.00 | 0.00 | 1064.3 | |
| 20260831191943 | 0 | 244 | 4.0 | 7.0 | 0.00 | 0.00 | 0.00 | 1064.3 | |
| 20260831191439 | 0 | 192 | 1.0 | 3.0 | 0.00 | 0.00 | 0.00 | 1064.7 | |
| 20260831190935 | 0 | 199 | 2.0 | 3.0 | 0.00 | 0.00 | 0.00 | 1064.3 | |
| 20260831190430 | 0 | 129 | 4.0 | 5.0 | 0.00 | 0.00 | 0.00 | 1064.6 | |
| 20260831185929 | 0 | 254 | 3.0 | 3.0 | 0.00 | 0.00 | 0.00 | 1064.5 | |
| 20260831185425 | 0 | 166 | 3.0 | 3.0 | 0.00 | 0.00 | 0.00 | 1064.6 | |
| 20260831184924 | 0 | 134 | 2.0 | 3.0 | 0.00 | 0.00 | 0.00 | 1064.8 | |
| 20260831184419 | 0 | 146 | 1.0 | 5.0 | 0.00 | 0.00 | 0.00 | 1064.6 | |
| 20260831183915 | 0 | 305 | 2.0 | 2.0 | 0.00 | 0.00 | 0.00 | 1064.6 | |
| 20260831183414 | 0 | 126 | 1.0 | 6.0 | 0.00 | 0.00 | 0.00 | 1064.7 | |
| 20260831182913 | 0 | 200 | 6.0 | 9.0 | 0.00 | 0.00 | 0.00 | 1064.8 | |
| 20260831182408 | 0 | 206 | 3.0 | 3.0 | 0.00 | 0.00 | 0.00 | 1064.9 | |
| 20260831181903 | 0 | 165 | 1.0 | 3.0 | 0.00 | 0.00 | 0.00 | 1064.8 | |
| 20260831181359 | 0 | 205 | 3.0 | 6.0 | 0.00 | 0.00 | 0.00 | 1065.1 | |
| 20260831180854 | 0 | 240 | 4.0 | 5.0 | 0.00 | 0.00 | 0.00 | 1065.2 | |
| 20260831180349 | 0 | 210 | 1.0 | 6.0 | 0.00 | 0.00 | 0.00 | 1065.0 | |
| 20260831175848 | 0 | 162 | 3.0 | 8.0 | 0.00 | 0.00 | 0.00 | 1065.2 | |
| 20260831175344 | 0 | 143 | 2.0 | 3.0 | 0.00 | 0.00 | 0.00 | 1065.1 | |
| 20260831174840 | 0 | 167 | 2.0 | 5.0 | 0.00 | 0.00 | 0.00 | 1065.3 | |
| 20260831174336 | 0 | 235 | 3.0 | 3.0 | 0.00 | 0.00 | 0.00 | 1065.1 | |
| 20260831173834 | 0 | 190 | 2.0 | 3.0 | 0.00 | 0.00 | 0.00 | 1065.4 | |
| 20260831173329 | 0 | 170 | 3.0 | 6.0 | 0.00 | 0.00 | 0.00 | 1065.5 | |
| 20260831172824 | 0 | 287 | 6.0 | 9.0 | 0.00 | 0.00 | 0.00 | 1065.5 | |
| 20260831172319 | 0 | 208 | 2.0 | 6.0 | 0.00 | 0.00 | 0.00 | 1065.5 | |
| 20260831171819 | 0 | 312 | 3.0 | 5.0 | 0.00 | 0.00 | 0.00 | 1065.5 | |
| 20260831171316 | 0 | 192 | 4.0 | 6.0 | 0.00 | 0.00 | 0.00 | 1065.7 | |
| 20260831170812 | 0 | 290 | 8.0 | 11.0 | 0.00 | 0.00 | 0.00 | 1065.6 | |
| 20260831170308 | 0 | 255 | 4.0 | 6.0 | 0.00 | 0.00 | 0.00 | 1066.0 | |
| 20260831165804 | 0 | 184 | 2.0 | 8.0 | 0.00 | 0.00 | 0.00 | 1066.0 | |
| 20260831165301 | 0 | 281 | 5.0 | 7.0 | 0.00 | 0.00 | 0.00 | 1065.7 | |
| 20260831164756 | 0 | 329 | 3.0 | 6.0 | 0.00 | 0.00 | 0.00 | 1066.1 | |
| 20260831164253 | 0 | 268 | 4.0 | 7.0 | 0.00 | 0.00 | 0.00 | 1066.1 | |
| 20260831163747 | 0 | 251 | 3.0 | 8.0 | 0.00 | 0.00 | 0.00 | 1066.1 | |
| 20260831163243 | 0 | 214 | 5.0 | 6.0 | 0.00 | 0.00 | 0.00 | 1066.2 | |
| 20260831162741 | 0 | 308 | 6.0 | 7.0 | 0.00 | 0.00 | 0.00 | 1065.8 | |
| 20260831162236 | 0 | 142 | 3.0 | 8.0 | 0.00 | 0.00 | 0.00 | 1066.0 | |
| 20260831161730 | 0 | 221 | 3.0 | 9.0 | 0.00 | 0.00 | 0.00 | 1066.2 | |
| 20260831161227 | 0 | 278 | 5.0 | 6.0 | 0.00 | 0.00 | 0.00 | 1065.7 | |
| 20260831160726 | 0 | 230 | 5.0 | 8.0 | 0.00 | 0.00 | 0.00 | 1065.8 | |
| 20260831160221 | 0 | 259 | 4.0 | 5.0 | 0.00 | 0.00 | 0.00 | 1066.0 | |
| 20260831155720 | 0 | 201 | 2.0 | 5.0 | 0.00 | 0.00 | 0.00 | 1065.7 | |
| 20260831155211 | 0 | 242 | 4.0 | 8.0 | 0.00 | 0.00 | 0.00 | 1066.2 | |
| 20260831154707 | 0 | 156 | 3.0 | 5.0 | 0.00 | 0.00 | 0.00 | 1066.1 | |
| 20260831154202 | 0 | 214 | 4.0 | 6.0 | 0.00 | 0.00 | 0.00 | 1066.0 | |
| 20260831153701 | 0 | 277 | 3.0 | 6.0 | 0.00 | 0.00 | 0.00 | 1066.0 | |
| 20260831153157 | 0 | 177 | 4.0 | 5.0 | 0.00 | 0.00 | 0.00 | 1065.8 | |
| 20260831152653 | 0 | 166 | 1.0 | 8.0 | 0.00 | 0.00 | 0.00 | 1066.2 | |
| 20260831152149 | 0 | 242 | 3.0 | 6.0 | 0.00 | 0.00 | 0.00 | 1066.2 | |
| 20260831151648 | 0 | 154 | 2.0 | 3.0 | 0.00 | 0.00 | 0.00 | 1066.2 | |
| 20260831151143 | 0 | 243 | 3.0 | 11.0 | 0.00 | 0.00 | 0.00 | 1066.1 | |
| 20260831150638 | 0 | 254 | 4.0 | 9.0 | 0.00 | 0.00 | 0.00 | 1066.0 | |
| 20260831150133 | 0 | 136 | 2.0 | 3.0 | 0.00 | 0.00 | 0.00 | 1065.8 | |
| 20260831145627 | 0 | 137 | 2.0 | 5.0 | 0.00 | 0.00 | 0.00 | 1065.8 | |
| 20260831145124 | 0 | 214 | 2.0 | 9.0 | 0.00 | 0.00 | 0.00 | 1065.8 | |
| 20260831144619 | 0 | 201 | 2.0 | 3.0 | 0.00 | 0.00 | 0.00 | 1066.0 | |
| 20260831144115 | 0 | 187 | 4.0 | 8.0 | 0.00 | 0.00 | 0.00 | 1065.8 | |
| 20260831143614 | 0 | 215 | 2.0 | 3.0 | 0.00 | 0.00 | 0.00 | 1065.8 | |
| 20260831143110 | 0 | 177 | 1.0 | 1.0 | 0.00 | 0.00 | 0.00 | 1066.0 | |
| 20260831142606 | 0 | 235 | 3.0 | 6.0 | 0.00 | 0.00 | 0.00 | 1066.1 | |
| 20260831142101 | 0 | 135 | 1.0 | 1.0 | 0.00 | 0.00 | 0.00 | 1065.8 | |
| 20260831141600 | 0 | 108 | 3.0 | 7.0 | 0.00 | 0.00 | 0.00 | 1065.8 | |
| 20260831141055 | 0 | 136 | 1.0 | 2.0 | 0.00 | 0.00 | 0.00 | 1066.0 | |
| 20260831140554 | 0 | 166 | 1.0 | 2.0 | 0.00 | 0.00 | 0.00 | 1066.0 | |
| 20260831140049 | 0 | 152 | 1.0 | 2.0 | 0.00 | 0.00 | 0.00 | 1065.8 | |
| 20260831135547 | 0 | 164 | 1.0 | 3.0 | 0.00 | 0.00 | 0.00 | 1065.7 | |
| 20260831135042 | 0 | 129 | 1.0 | 3.0 | 0.00 | 0.00 | 0.00 | 1065.7 | |
| 20260831134538 | 0 | 160 | 1.0 | 3.0 | 0.00 | 0.00 | 0.00 | 1066.0 | |
| 20260831134033 | 0 | 132 | 1.0 | 2.0 | 0.00 | 0.00 | 0.00 | 1065.7 | |
| 20260831133527 | 0 | 174 | 1.0 | 2.0 | 0.00 | 0.00 | 0.00 | 1065.7 | |
| 20260831133022 | 0 | 161 | 1.0 | 3.0 | 0.00 | 0.00 | 0.00 | 1066.0 | |
| 20260831132519 | 0 | 139 | 1.0 | 3.0 | 0.00 | 0.00 | 0.00 | 1065.6 | |
| 20260831132017 | 0 | 147 | 0.0 | 6.0 | 0.00 | 0.00 | 0.00 | 1065.6 | |
| 20260831131517 | 0 | 160 | 2.0 | 5.0 | 0.00 | 0.00 | 0.00 | 1065.8 | |
| 20260831131014 | 0 | 146 | 1.0 | 3.0 | 0.00 | 0.00 | 0.00 | 1065.7 | |
| 20260831130514 | 0 | 170 | 1.0 | 2.0 | 0.00 | 0.00 | 0.00 | 1065.6 | |
| 20260831130009 | 0 | 146 | 2.0 | 2.0 | 0.00 | 0.00 | 0.00 | 1065.7 | |
| 20260831125503 | 0 | 151 | 0.0 | 2.0 | 0.00 | 0.00 | 0.00 | 1065.6 | |
| 20260831124959 | 0 | 136 | 0.0 | 2.0 | 0.00 | 0.00 | 0.00 | 1065.3 | |
| 20260831124454 | 0 | 143 | 0.0 | 3.0 | 0.00 | 0.00 | 0.00 | 1065.2 | |
| 20260831123950 | 0 | 156 | 3.0 | 3.0 | 0.00 | 0.00 | 0.00 | 1065.2 | |
| 20260831123449 | 0 | 149 | 2.0 | 6.0 | 0.00 | 0.00 | 0.00 | 1065.1 | |
| 20260831122944 | 0 | 148 | 1.0 | 3.0 | 0.00 | 0.00 | 0.00 | 1065.0 | |
| 20260831122439 | 0 | 159 | 1.0 | 2.0 | 0.00 | 0.00 | 0.00 | 1065.0 | |
| 20260831121935 | 0 | 163 | 3.0 | 5.0 | 0.00 | 0.00 | 0.00 | 1064.9 | |
| 20260831121430 | 0 | 154 | 1.0 | 3.0 | 0.00 | 0.00 | 0.00 | 1064.9 | |
| 20260831120925 | 0 | 160 | 3.0 | 5.0 | 0.00 | 0.00 | 0.00 | 1064.8 | |
| 20260831120419 | 0 | 149 | 1.0 | 3.0 | 0.00 | 0.00 | 0.00 | 1064.8 | |
| 20260831115914 | 0 | 175 | 3.0 | 5.0 | 0.00 | 0.00 | 0.00 | 1064.8 | |
| 20260831115410 | 0 | 186 | 1.0 | 2.0 | 0.00 | 0.00 | 0.00 | 1064.7 | |
| 20260831114909 | 0 | 159 | 1.0 | 2.0 | 0.00 | 0.00 | 0.00 | 1064.4 | |
| 20260831114408 | 0 | 155 | 1.0 | 2.0 | 0.00 | 0.00 | 0.00 | 1064.3 | |
| 20260831113905 | 0 | 149 | 0.0 | 1.0 | 0.00 | 0.00 | 0.00 | 1064.3 | |
| 20260831113404 | 0 | 137 | 1.0 | 3.0 | 0.00 | 0.00 | 0.00 | 1064.2 | |
| 20260831112859 | 0 | 168 | 1.0 | 2.0 | 0.00 | 0.00 | 0.00 | 1064.2 | |
| 20260831112354 | 0 | 149 | 0.0 | 2.0 | 0.00 | 0.00 | 0.00 | 1064.2 | |
| 20260831111849 | 0 | 179 | 1.0 | 3.0 | 0.00 | 0.00 | 0.00 | 1064.2 | |
| 20260831111345 | 0 | 170 | 1.0 | 3.0 | 0.00 | 0.00 | 0.00 | 1064.2 | |
| 20260831110841 | 0 | 172 | 2.0 | 3.0 | 0.00 | 0.00 | 0.00 | 1064.2 | |
| 20260831110340 | 0 | 153 | 3.0 | 3.0 | 0.00 | 0.00 | 0.00 | 1064.3 | |
| 20260831105839 | 0 | 177 | 2.0 | 3.0 | 0.00 | 0.00 | 0.00 | 1064.2 | |
| 20260831105335 | 0 | 176 | 3.0 | 3.0 | 0.00 | 0.00 | 0.00 | 1064.0 | |
| 20260831104830 | 0 | 145 | 2.0 | 2.0 | 0.00 | 0.00 | 0.00 | 1064.1 | |
| 20260831104327 | 0 | 169 | 1.0 | 2.0 | 0.00 | 0.00 | 0.00 | 1064.1 | |
| 20260831103826 | 0 | 162 | 1.0 | 3.0 | 0.00 | 0.00 | 0.00 | 1064.1 | |
| 20260831103322 | 0 | 162 | 1.0 | 1.0 | 0.00 | 0.00 | 0.00 | 1064.0 | |
| 20260831102817 | 0 | 164 | 1.0 | 5.0 | 0.00 | 0.00 | 0.00 | 1064.1 | |
| 20260831102312 | 0 | 175 | 2.0 | 5.0 | 0.00 | 0.00 | 0.00 | 1064.1 | |
| 20260831101808 | 0 | 181 | 4.0 | 6.0 | 0.00 | 0.00 | 0.00 | 1064.1 | |
| 20260831101303 | 0 | 176 | 4.0 | 5.0 | 0.00 | 0.00 | 0.00 | 1064.1 | |
| 20260831100758 | 0 | 164 | 2.0 | 6.0 | 0.00 | 0.00 | 0.00 | 1064.2 | |
| 20260831100254 | 0 | 165 | 3.0 | 3.0 | 0.00 | 0.00 | 0.00 | 1064.2 | |
| 20260831095754 | 0 | 170 | 3.0 | 3.0 | 0.00 | 0.00 | 0.00 | 1063.9 | |
| 20260831095249 | 0 | 170 | 2.0 | 3.0 | 0.00 | 0.00 | 0.00 | 1063.9 | |
| 20260831094748 | 0 | 143 | 1.0 | 5.0 | 0.00 | 0.00 | 0.00 | 1064.0 | |
| 20260831094244 | 0 | 189 | 4.0 | 7.0 | 0.00 | 0.00 | 0.00 | 1064.2 | |
| 20260831093740 | 0 | 155 | 2.0 | 6.0 | 0.00 | 0.00 | 0.00 | 1064.0 | |
| 20260831093235 | 0 | 158 | 3.0 | 5.0 | 0.00 | 0.00 | 0.00 | 1064.0 | |
| 20260831092732 | 0 | 166 | 2.0 | 3.0 | 0.00 | 0.00 | 0.00 | 1064.2 | |
| 20260831092227 | 0 | 163 | 2.0 | 3.0 | 0.00 | 0.00 | 0.00 | 1063.9 | |
| 20260831091726 | 0 | 173 | 1.0 | 2.0 | 0.00 | 0.00 | 0.00 | 1063.9 | |
| 20260831091222 | 0 | 160 | 1.0 | 3.0 | 0.00 | 0.00 | 0.00 | 1064.1 | |
| 20260831090717 | 0 | 166 | 3.0 | 6.0 | 0.00 | 0.00 | 0.00 | 1063.9 | |
| 20260831090214 | 0 | 174 | 2.0 | 5.0 | 0.00 | 0.00 | 0.00 | 1064.1 | |
| 20260831085709 | 0 | 192 | 3.0 | 5.0 | 0.00 | 0.00 | 0.00 | 1064.1 | |
| 20260831085204 | 0 | 152 | 3.0 | 5.0 | 0.00 | 0.00 | 0.00 | 1064.0 | |
| 20260831084659 | 0 | 157 | 1.0 | 5.0 | 0.00 | 0.00 | 0.00 | 1064.0 | |
| 20260831084155 | 0 | 172 | 2.0 | 6.0 | 0.00 | 0.00 | 0.00 | 1064.0 | |
| 20260831083651 | 0 | 181 | 3.0 | 5.0 | 0.00 | 0.00 | 0.00 | 1063.9 | |
| 20260831083146 | 0 | 148 | 3.0 | 3.0 | 0.00 | 0.00 | 0.00 | 1063.9 | |
| 20260831082644 | 0 | 156 | 2.0 | 3.0 | 0.00 | 0.00 | 0.00 | 1064.1 | |
| 20260831082140 | 0 | 164 | 1.0 | 3.0 | 0.00 | 0.00 | 0.00 | 1063.8 | |
| 20260831081636 | 0 | 190 | 3.0 | 7.0 | 0.00 | 0.00 | 0.00 | 1063.7 | |
| 20260831081131 | 0 | 130 | 2.0 | 5.0 | 0.00 | 0.00 | 0.00 | 1063.8 | |
| 20260831080627 | 0 | 184 | 4.0 | 6.0 | 0.00 | 0.00 | 0.00 | 1063.6 | |
| 20260831080121 | 0 | 184 | 4.0 | 5.0 | 0.00 | 0.00 | 0.00 | 1063.6 | |
| 20260831075617 | 0 | 167 | 2.0 | 6.0 | 0.00 | 0.00 | 0.00 | 1063.8 | |
| 20260831075113 | 0 | 181 | 3.0 | 6.0 | 0.00 | 0.00 | 0.00 | 1063.5 | |
| 20260831074612 | 0 | 196 | 3.0 | 8.0 | 0.00 | 0.00 | 0.00 | 1063.6 | |
| 20260831074107 | 0 | 156 | 5.0 | 6.0 | 0.00 | 0.00 | 0.00 | 1063.6 | |
| 20260831073602 | 0 | 165 | 4.0 | 7.0 | 0.00 | 0.00 | 0.00 | 1063.5 | |
| 20260831073101 | 0 | 155 | 4.0 | 7.0 | 0.00 | 0.00 | 0.00 | 1063.8 | |
| 20260831072556 | 0 | 189 | 3.0 | 5.0 | 0.00 | 0.00 | 0.00 | 1063.7 | |
| 20260831072054 | 0 | 196 | 3.0 | 5.0 | 0.00 | 0.00 | 0.00 | 1063.7 | |
| 20260831071551 | 0 | 171 | 5.0 | 8.0 | 0.00 | 0.00 | 0.00 | 1063.6 | |
| 20260831071047 | 0 | 172 | 5.0 | 7.0 | 0.00 | 0.00 | 0.00 | 1063.9 | |
| 20260831070546 | 0 | 193 | 4.0 | 10.0 | 0.00 | 0.00 | 0.00 | 1063.6 | |
| 20260831070041 | 0 | 189 | 5.0 | 9.0 | 0.00 | 0.00 | 0.00 | 1063.7 | |
| 20260831065538 | 0 | 196 | 5.0 | 7.0 | 0.00 | 0.00 | 0.00 | 1063.8 | |
| 20260831065033 | 0 | 161 | 5.0 | 7.0 | 0.00 | 0.00 | 0.00 | 1063.8 | |
| 20260831064528 | 0 | 175 | 3.0 | 6.0 | 0.00 | 0.00 | 0.00 | 1064.0 | |
| 20260831064024 | 0 | 147 | 4.0 | 8.0 | 0.00 | 0.00 | 0.00 | 1063.9 | |
| 20260831063519 | 0 | 128 | 6.0 | 7.0 | 0.00 | 0.00 | 0.00 | 1064.2 | |
| 20260831063014 | 0 | 178 | 3.0 | 7.0 | 0.00 | 0.00 | 0.00 | 1064.0 | |
| 20260831062509 | 0 | 165 | 3.0 | 6.0 | 0.00 | 0.00 | 0.00 | 1063.9 | |
| 20260831062008 | 0 | 179 | 4.0 | 5.0 | 0.00 | 0.00 | 0.00 | 1063.9 | |
| 20260831061506 | 0 | 196 | 4.0 | 6.0 | 0.00 | 0.00 | 0.00 | 1064.0 | |
| 20260831061003 | 0 | 181 | 4.0 | 5.0 | 0.00 | 0.00 | 0.00 | 1063.9 | |
| 20260831060502 | 0 | 181 | 4.0 | 9.0 | 0.00 | 0.00 | 0.00 | 1063.9 | |
| 20260831055956 | 0 | 169 | 4.0 | 9.0 | 0.00 | 0.00 | 0.00 | 1063.8 | |
| 20260831055451 | 0 | 136 | 4.0 | 8.0 | 0.00 | 0.00 | 0.00 | 1064.1 | |
| 20260831054942 | 0 | 182 | 6.0 | 9.0 | 0.00 | 0.00 | 0.00 | 1063.8 | |
| 20260831054441 | 0 | 175 | 3.0 | 5.0 | 0.00 | 0.00 | 0.00 | 1064.1 | |
| 20260831053935 | 0 | 179 | 4.0 | 7.0 | 0.00 | 0.00 | 0.00 | 1063.9 | |
| 20260831053433 | 0 | 187 | 3.0 | 7.0 | 0.00 | 0.00 | 0.00 | 1064.1 | |
| 20260831052928 | 0 | 188 | 4.0 | 7.0 | 0.00 | 0.00 | 0.00 | 1064.2 | |
| 20260831052427 | 0 | 184 | 4.0 | 7.0 | 0.00 | 0.00 | 0.00 | 1064.0 | |
| 20260831051926 | 0 | 152 | 5.0 | 6.0 | 0.00 | 0.00 | 0.00 | 1064.0 | |
| 20260831051424 | 0 | 151 | 4.0 | 8.0 | 0.00 | 0.00 | 0.00 | 1063.9 | |
| 20260831050919 | 0 | 163 | 3.0 | 5.0 | 0.00 | 0.00 | 0.00 | 1063.9 | |
| 20260831050419 | 0 | 180 | 7.0 | 9.0 | 0.00 | 0.00 | 0.00 | 1063.9 |